owner,sensor,date,latitude,longitude,vertical_datum,wind_speed,wind_to_direction,wind_speed_of_gust,qcFlag 
TCOON,ioos:station:TCOON:006:1,2014-06-01T00:00:00Z,27.8217,-97.2040,0.0,3.8,134.0,5.2,'1111122,1111122,1111122' 
TCOON,ioos:station:TCOON:006:1,2014-06-01T00:06:00Z,27.8217,-97.2040,0.0,3.7,120.0,5.6,'11111222,11111222,11111222' 
TCOON,ioos:station:TCOON:006:1,2014-06-01T00:12:00Z,27.8217,-97.2040,0.0,3.9,122.0,5.9,'11111222,11111222,11111222' 
TCOON,ioos:station:TCOON:006:1,2014-06-01T00:18:00Z,27.8217,-97.2040,0.0,4.3,118.0,5.5,'11111222,11111222,11111222' 
TCOON,ioos:station:TCOON:006:1,2014-06-01T00:24:00Z,27.8217,-97.2040,0.0,4.4,120.0,5.7,'11111222,11111222,11111222' 
TCOON,ioos:station:TCOON:006:1,2014-06-01T00:30:00Z,27.8217,-97.2040,0.0,4.3,118.0,5.8,'11111222,11111222,11111222' 
TCOON,ioos:station:TCOON:006:1,2014-06-01T00:36:00Z,27.8217,-97.2040,0.0,3.6,113.0,5.7,'11111222,11111222,11111222' 
TCOON,ioos:station:TCOON:006:1,2014-06-01T00:42:00Z,27.8217,-97.2040,0.0,4.0,110.0,5.1,'11111222,11111222,11111222' 
TCOON,ioos:station:TCOON:006:1,2014-06-01T00:48:00Z,27.8217,-97.2040,0.0,3.7,108.0,5.7,'11111222,11111222,11111222' 
TCOON,ioos:station:TCOON:006:1,2014-06-01T00:54:00Z,27.8217,-97.2040,0.0,3.9,104.0,5.9,'11111222,11111222,11111222' 
TCOON,ioos:station:TCOON:006:1,2014-06-01T01:00:00Z,27.8217,-97.2040,0.0,3.9,104.0,5.9,'1111122,1111122,1111122' 
TCOON,ioos:station:TCOON:006:1,2014-06-01T01:06:00Z,27.8217,-97.2040,0.0,4.4,112.0,6.2,'11111222,11111222,11111222' 
TCOON,ioos:station:TCOON:006:1,2014-06-01T01:12:00Z,27.8217,-97.2040,0.0,4.2,107.0,5.9,'11111222,11111222,11111222' 
TCOON,ioos:station:TCOON:006:1,2014-06-01T01:18:00Z,27.8217,-97.2040,0.0,4.0,106.0,5.7,'11111222,11111222,11111222' 
TCOON,ioos:station:TCOON:006:1,2014-06-01T01:24:00Z,27.8217,-97.2040,0.0,4.0,114.0,6.3,'11111222,11111222,11111222' 
TCOON,ioos:station:TCOON:006:1,2014-06-01T01:30:00Z,27.8217,-97.2040,0.0,4.2,110.0,5.7,'11111222,11111222,11111222' 
TCOON,ioos:station:TCOON:006:1,2014-06-01T01:36:00Z,27.8217,-97.2040,0.0,3.4,121.0,4.8,'11111222,11111222,11111222' 
TCOON,ioos:station:TCOON:006:1,2014-06-01T01:42:00Z,27.8217,-97.2040,0.0,3.8,128.0,5.0,'11111222,11111222,11111222' 
TCOON,ioos:station:TCOON:006:1,2014-06-01T01:48:00Z,27.8217,-97.2040,0.0,3.6,126.0,5.4,'11111222,11111222,11111222' 
TCOON,ioos:station:TCOON:006:1,2014-06-01T01:54:00Z,27.8217,-97.2040,0.0,3.8,132.0,4.8,'11111222,11111222,11111222' 
TCOON,ioos:station:TCOON:006:1,2014-06-01T02:00:00Z,27.8217,-97.2040,0.0,3.8,132.0,4.8,'1111122,1111122,1111122' 
TCOON,ioos:station:TCOON:006:1,2014-06-01T02:06:00Z,27.8217,-97.2040,0.0,3.4,129.0,4.8,'11111222,11111222,11111222' 
TCOON,ioos:station:TCOON:006:1,2014-06-01T02:12:00Z,27.8217,-97.2040,0.0,3.1,129.0,4.3,'11111222,11111222,11111222' 
TCOON,ioos:station:TCOON:006:1,2014-06-01T02:18:00Z,27.8217,-97.2040,0.0,3.2,123.0,4.0,'11111222,11111222,11111222' 
TCOON,ioos:station:TCOON:006:1,2014-06-01T02:24:00Z,27.8217,-97.2040,0.0,3.9,126.0,5.0,'11111222,11111222,11111222' 
TCOON,ioos:station:TCOON:006:1,2014-06-01T02:30:00Z,27.8217,-97.2040,0.0,4.5,127.0,5.7,'11111222,11111222,11111222' 
TCOON,ioos:station:TCOON:006:1,2014-06-01T02:36:00Z,27.8217,-97.2040,0.0,4.2,132.0,5.5,'11111222,11111222,11111222' 
TCOON,ioos:station:TCOON:006:1,2014-06-01T02:42:00Z,27.8217,-97.2040,0.0,3.7,133.0,5.0,'11111222,11111222,11111222' 
TCOON,ioos:station:TCOON:006:1,2014-06-01T02:48:00Z,27.8217,-97.2040,0.0,4.3,128.0,5.1,'11111222,11111222,11111222' 
TCOON,ioos:station:TCOON:006:1,2014-06-01T02:54:00Z,27.8217,-97.2040,0.0,4.2,132.0,5.0,'11111222,11111222,11111222' 
TCOON,ioos:station:TCOON:006:1,2014-06-01T03:00:00Z,27.8217,-97.2040,0.0,4.2,132.0,5.0,'1111122,1111122,1111122' 
TCOON,ioos:station:TCOON:006:1,2014-06-01T03:06:00Z,27.8217,-97.2040,0.0,3.8,121.0,5.3,'11111222,11111222,11111222' 
TCOON,ioos:station:TCOON:006:1,2014-06-01T03:12:00Z,27.8217,-97.2040,0.0,3.9,122.0,5.0,'11111222,11111222,11111222' 
TCOON,ioos:station:TCOON:006:1,2014-06-01T03:18:00Z,27.8217,-97.2040,0.0,3.6,130.0,4.8,'11111222,11111222,11111222' 
TCOON,ioos:station:TCOON:006:1,2014-06-01T03:24:00Z,27.8217,-97.2040,0.0,4.0,121.0,5.2,'11111222,11111222,11111222' 
TCOON,ioos:station:TCOON:006:1,2014-06-01T03:30:00Z,27.8217,-97.2040,0.0,3.9,126.0,5.0,'11111222,11111222,11111222' 
TCOON,ioos:station:TCOON:006:1,2014-06-01T03:36:00Z,27.8217,-97.2040,0.0,4.2,116.0,6.0,'11111222,11111222,11111222' 
TCOON,ioos:station:TCOON:006:1,2014-06-01T03:42:00Z,27.8217,-97.2040,0.0,4.7,112.0,6.4,'11111222,11111222,11111222' 
TCOON,ioos:station:TCOON:006:1,2014-06-01T03:48:00Z,27.8217,-97.2040,0.0,4.1,130.0,5.8,'11111222,11111222,11111222' 
TCOON,ioos:station:TCOON:006:1,2014-06-01T03:54:00Z,27.8217,-97.2040,0.0,4.0,126.0,5.3,'11111222,11111222,11111222' 
TCOON,ioos:station:TCOON:006:1,2014-06-01T04:00:00Z,27.8217,-97.2040,0.0,4.0,126.0,5.3,'1111122,1111122,1111122' 
TCOON,ioos:station:TCOON:006:1,2014-06-01T04:06:00Z,27.8217,-97.2040,0.0,4.3,129.0,5.4,'11111222,11111222,11111222' 
TCOON,ioos:station:TCOON:006:1,2014-06-01T04:12:00Z,27.8217,-97.2040,0.0,3.5,141.0,5.2,'11111222,11111222,11111222' 
TCOON,ioos:station:TCOON:006:1,2014-06-01T04:18:00Z,27.8217,-97.2040,0.0,3.9,132.0,5.1,'11111222,11111222,11111222' 
TCOON,ioos:station:TCOON:006:1,2014-06-01T04:24:00Z,27.8217,-97.2040,0.0,4.2,135.0,5.1,'11111222,11111222,11111222' 
TCOON,ioos:station:TCOON:006:1,2014-06-01T04:30:00Z,27.8217,-97.2040,0.0,4.2,132.0,5.7,'11111222,11111222,11111222' 
TCOON,ioos:station:TCOON:006:1,2014-06-01T04:36:00Z,27.8217,-97.2040,0.0,3.6,130.0,5.3,'11111222,11111222,11111222' 
TCOON,ioos:station:TCOON:006:1,2014-06-01T04:42:00Z,27.8217,-97.2040,0.0,4.3,134.0,5.2,'11111222,11111222,11111222' 
TCOON,ioos:station:TCOON:006:1,2014-06-01T04:48:00Z,27.8217,-97.2040,0.0,4.4,132.0,5.3,'11111222,11111222,11111222' 
TCOON,ioos:station:TCOON:006:1,2014-06-01T04:54:00Z,27.8217,-97.2040,0.0,3.5,133.0,4.9,'11111222,11111222,11111222' 
TCOON,ioos:station:TCOON:006:1,2014-06-01T05:00:00Z,27.8217,-97.2040,0.0,3.5,133.0,4.9,'1111122,1111122,1111122' 
TCOON,ioos:station:TCOON:006:1,2014-06-01T05:06:00Z,27.8217,-97.2040,0.0,4.5,133.0,5.8,'11111222,11111222,11111222' 
TCOON,ioos:station:TCOON:006:1,2014-06-01T05:12:00Z,27.8217,-97.2040,0.0,4.2,127.0,5.3,'11111222,11111222,11111222' 
TCOON,ioos:station:TCOON:006:1,2014-06-01T05:18:00Z,27.8217,-97.2040,0.0,3.9,138.0,5.8,'11111222,11111222,11111222' 
TCOON,ioos:station:TCOON:006:1,2014-06-01T05:24:00Z,27.8217,-97.2040,0.0,4.0,130.0,5.5,'11111222,11111222,11111222' 
TCOON,ioos:station:TCOON:006:1,2014-06-01T05:30:00Z,27.8217,-97.2040,0.0,4.2,132.0,5.7,'11111222,11111222,11111222' 
TCOON,ioos:station:TCOON:006:1,2014-06-01T05:36:00Z,27.8217,-97.2040,0.0,5.1,134.0,5.9,'11111222,11111222,11111222' 
TCOON,ioos:station:TCOON:006:1,2014-06-01T05:42:00Z,27.8217,-97.2040,0.0,3.7,138.0,6.3,'11111222,11111222,11111222' 
TCOON,ioos:station:TCOON:006:1,2014-06-01T05:48:00Z,27.8217,-97.2040,0.0,4.9,132.0,6.2,'11111222,11111222,11111222' 
TCOON,ioos:station:TCOON:006:1,2014-06-01T05:54:00Z,27.8217,-97.2040,0.0,5.0,133.0,6.4,'11111222,11111222,11111222' 
TCOON,ioos:station:TCOON:006:1,2014-06-01T06:00:00Z,27.8217,-97.2040,0.0,4.6,131.0,6.2,'11111222,11111222,11111222' 
TCOON,ioos:station:TCOON:006:1,2014-06-01T06:06:00Z,27.8217,-97.2040,0.0,4.3,136.0,5.7,'11111222,11111222,11111222' 
TCOON,ioos:station:TCOON:006:1,2014-06-01T06:12:00Z,27.8217,-97.2040,0.0,3.9,134.0,5.1,'11111222,11111222,11111222' 
TCOON,ioos:station:TCOON:006:1,2014-06-01T06:18:00Z,27.8217,-97.2040,0.0,3.3,136.0,5.1,'11111222,11111222,11111222' 
TCOON,ioos:station:TCOON:006:1,2014-06-01T06:24:00Z,27.8217,-97.2040,0.0,3.0,148.0,4.5,'11111222,11111222,11111222' 
TCOON,ioos:station:TCOON:006:1,2014-06-01T06:30:00Z,27.8217,-97.2040,0.0,3.0,148.0,4.5,'1111122,1111122,1111122' 
TCOON,ioos:station:TCOON:006:1,2014-06-01T06:36:00Z,27.8217,-97.2040,0.0,3.3,135.0,4.5,'11111222,11111222,11111222' 
TCOON,ioos:station:TCOON:006:1,2014-06-01T06:42:00Z,27.8217,-97.2040,0.0,3.3,150.0,4.5,'11111222,11111222,11111222' 
TCOON,ioos:station:TCOON:006:1,2014-06-01T06:48:00Z,27.8217,-97.2040,0.0,4.0,151.0,4.9,'11111222,11111222,11111222' 
TCOON,ioos:station:TCOON:006:1,2014-06-01T06:54:00Z,27.8217,-97.2040,0.0,3.4,152.0,4.7,'11111222,11111222,11111222' 
TCOON,ioos:station:TCOON:006:1,2014-06-01T07:00:00Z,27.8217,-97.2040,0.0,3.4,152.0,4.7,'1111122,1111122,1111122' 
TCOON,ioos:station:TCOON:006:1,2014-06-01T07:06:00Z,27.8217,-97.2040,0.0,3.0,133.0,4.1,'11111222,11111222,11111222' 
TCOON,ioos:station:TCOON:006:1,2014-06-01T07:12:00Z,27.8217,-97.2040,0.0,3.8,152.0,5.0,'11111222,11111222,11111222' 
TCOON,ioos:station:TCOON:006:1,2014-06-01T07:18:00Z,27.8217,-97.2040,0.0,3.5,139.0,4.9,'11111222,11111222,11111222' 
TCOON,ioos:station:TCOON:006:1,2014-06-01T07:24:00Z,27.8217,-97.2040,0.0,3.2,139.0,4.5,'11111222,11111222,11111222' 
TCOON,ioos:station:TCOON:006:1,2014-06-01T07:30:00Z,27.8217,-97.2040,0.0,4.3,132.0,5.1,'11111222,11111222,11111222' 
TCOON,ioos:station:TCOON:006:1,2014-06-01T07:36:00Z,27.8217,-97.2040,0.0,3.0,140.0,4.9,'11111222,11111222,11111222' 
TCOON,ioos:station:TCOON:006:1,2014-06-01T07:42:00Z,27.8217,-97.2040,0.0,3.4,136.0,4.3,'11111222,11111222,11111222' 
TCOON,ioos:station:TCOON:006:1,2014-06-01T07:48:00Z,27.8217,-97.2040,0.0,3.3,149.0,4.1,'11111222,11111222,11111222' 
TCOON,ioos:station:TCOON:006:1,2014-06-01T07:54:00Z,27.8217,-97.2040,0.0,3.4,147.0,4.4,'11111222,11111222,11111222' 
TCOON,ioos:station:TCOON:006:1,2014-06-01T08:00:00Z,27.8217,-97.2040,0.0,3.4,147.0,4.4,'1111122,1111122,1111122' 
TCOON,ioos:station:TCOON:006:1,2014-06-01T08:06:00Z,27.8217,-97.2040,0.0,3.2,149.0,4.0,'11111222,11111222,11111222' 
TCOON,ioos:station:TCOON:006:1,2014-06-01T08:12:00Z,27.8217,-97.2040,0.0,3.2,150.0,4.1,'11111222,11111222,11111222' 
TCOON,ioos:station:TCOON:006:1,2014-06-01T08:18:00Z,27.8217,-97.2040,0.0,2.9,136.0,3.6,'11111222,11111222,11111222' 
TCOON,ioos:station:TCOON:006:1,2014-06-01T08:24:00Z,27.8217,-97.2040,0.0,2.4,145.0,3.5,'11111222,11111222,11111222' 
TCOON,ioos:station:TCOON:006:1,2014-06-01T08:30:00Z,27.8217,-97.2040,0.0,3.1,152.0,4.0,'11111222,11111222,11111222' 
TCOON,ioos:station:TCOON:006:1,2014-06-01T08:36:00Z,27.8217,-97.2040,0.0,3.1,149.0,3.9,'11111222,11111222,11111222' 
TCOON,ioos:station:TCOON:006:1,2014-06-01T08:42:00Z,27.8217,-97.2040,0.0,3.4,153.0,4.2,'11111222,11111222,11111222' 
TCOON,ioos:station:TCOON:006:1,2014-06-01T08:48:00Z,27.8217,-97.2040,0.0,3.1,155.0,4.0,'11111222,11111222,11111222' 
TCOON,ioos:station:TCOON:006:1,2014-06-01T08:54:00Z,27.8217,-97.2040,0.0,3.1,149.0,3.8,'11111222,11111222,11111222' 
TCOON,ioos:station:TCOON:006:1,2014-06-01T09:00:00Z,27.8217,-97.2040,0.0,3.1,149.0,3.8,'1111122,1111122,1111122' 
TCOON,ioos:station:TCOON:006:1,2014-06-01T09:06:00Z,27.8217,-97.2040,0.0,2.3,142.0,4.1,'11111222,11111222,11111222' 
TCOON,ioos:station:TCOON:006:1,2014-06-01T09:12:00Z,27.8217,-97.2040,0.0,2.4,146.0,3.7,'11111222,11111222,11111222' 
TCOON,ioos:station:TCOON:006:1,2014-06-01T09:18:00Z,27.8217,-97.2040,0.0,2.4,146.0,3.4,'11111222,11111222,11111222' 
TCOON,ioos:station:TCOON:006:1,2014-06-01T09:24:00Z,27.8217,-97.2040,0.0,2.1,148.0,3.4,'11111222,11111222,11111222' 
TCOON,ioos:station:TCOON:006:1,2014-06-01T09:30:00Z,27.8217,-97.2040,0.0,2.8,132.0,3.5,'11111222,11111222,11111222' 
TCOON,ioos:station:TCOON:006:1,2014-06-01T09:36:00Z,27.8217,-97.2040,0.0,3.0,135.0,3.7,'11111222,11111222,11111222' 
TCOON,ioos:station:TCOON:006:1,2014-06-01T09:42:00Z,27.8217,-97.2040,0.0,1.9,144.0,3.5,'11111222,11111222,11111222' 
TCOON,ioos:station:TCOON:006:1,2014-06-01T09:48:00Z,27.8217,-97.2040,0.0,2.5,138.0,3.5,'11111222,11111222,11111222' 
TCOON,ioos:station:TCOON:006:1,2014-06-01T09:54:00Z,27.8217,-97.2040,0.0,2.8,147.0,3.7,'11111222,11111222,11111222' 
TCOON,ioos:station:TCOON:006:1,2014-06-01T10:00:00Z,27.8217,-97.2040,0.0,2.8,147.0,3.7,'1111122,1111122,1111122' 
TCOON,ioos:station:TCOON:006:1,2014-06-01T10:06:00Z,27.8217,-97.2040,0.0,2.2,141.0,3.5,'11111222,11111222,11111222' 
TCOON,ioos:station:TCOON:006:1,2014-06-01T10:12:00Z,27.8217,-97.2040,0.0,2.7,151.0,3.3,'11111222,11111222,11111222' 
TCOON,ioos:station:TCOON:006:1,2014-06-01T10:18:00Z,27.8217,-97.2040,0.0,2.8,159.0,3.3,'11111222,11111222,11111222' 
TCOON,ioos:station:TCOON:006:1,2014-06-01T10:24:00Z,27.8217,-97.2040,0.0,2.8,159.0,3.3,'11111222,11111222,11111222' 
TCOON,ioos:station:TCOON:006:1,2014-06-01T10:30:00Z,27.8217,-97.2040,0.0,2.4,155.0,3.0,'11111222,11111222,11111222' 
TCOON,ioos:station:TCOON:006:1,2014-06-01T10:36:00Z,27.8217,-97.2040,0.0,1.8,152.0,2.8,'11111222,11111222,11111222' 
TCOON,ioos:station:TCOON:006:1,2014-06-01T10:42:00Z,27.8217,-97.2040,0.0,1.8,158.0,2.4,'11111222,11111222,11111222' 
TCOON,ioos:station:TCOON:006:1,2014-06-01T10:48:00Z,27.8217,-97.2040,0.0,1.6,157.0,2.4,'11111222,11111222,11111222' 
TCOON,ioos:station:TCOON:006:1,2014-06-01T10:54:00Z,27.8217,-97.2040,0.0,1.8,159.0,2.3,'11111222,11111222,11111222' 
TCOON,ioos:station:TCOON:006:1,2014-06-01T11:00:00Z,27.8217,-97.2040,0.0,1.8,159.0,2.3,'1111122,1111122,1111122' 
TCOON,ioos:station:TCOON:006:1,2014-06-01T11:06:00Z,27.8217,-97.2040,0.0,1.5,166.0,2.0,'11111222,11111222,11111222' 
TCOON,ioos:station:TCOON:006:1,2014-06-01T11:12:00Z,27.8217,-97.2040,0.0,1.5,157.0,1.9,'11111222,11111222,11111222' 
TCOON,ioos:station:TCOON:006:1,2014-06-01T11:18:00Z,27.8217,-97.2040,0.0,1.5,155.0,2.0,'11111222,11111222,11111222' 
TCOON,ioos:station:TCOON:006:1,2014-06-01T11:24:00Z,27.8217,-97.2040,0.0,1.2,164.0,1.7,'11111222,11111222,11111222' 
TCOON,ioos:station:TCOON:006:1,2014-06-01T11:30:00Z,27.8217,-97.2040,0.0,1.4,158.0,1.8,'11111222,11111222,11111222' 
TCOON,ioos:station:TCOON:006:1,2014-06-01T11:36:00Z,27.8217,-97.2040,0.0,1.6,152.0,1.8,'11111222,11111222,11111222' 
TCOON,ioos:station:TCOON:006:1,2014-06-01T11:42:00Z,27.8217,-97.2040,0.0,0.7,136.0,1.7,'11111222,11111222,11111222' 
TCOON,ioos:station:TCOON:006:1,2014-06-01T11:48:00Z,27.8217,-97.2040,0.0,0.9,140.0,1.5,'11111222,11111222,11111222' 
TCOON,ioos:station:TCOON:006:1,2014-06-01T11:54:00Z,27.8217,-97.2040,0.0,1.0,168.0,1.4,'11111222,11111222,11111222' 
TCOON,ioos:station:TCOON:006:1,2014-06-01T12:00:00Z,27.8217,-97.2040,0.0,1.0,168.0,1.4,'1111122,1111122,1111122' 
TCOON,ioos:station:TCOON:006:1,2014-06-01T12:06:00Z,27.8217,-97.2040,0.0,0.8,114.0,1.3,'11111222,11111222,11111222' 
TCOON,ioos:station:TCOON:006:1,2014-06-01T12:12:00Z,27.8217,-97.2040,0.0,0.4,38.0,0.9,'11111222,11111222,11111222' 
TCOON,ioos:station:TCOON:006:1,2014-06-01T12:18:00Z,27.8217,-97.2040,0.0,0.8,21.0,1.1,'11111222,11111222,11111222' 
TCOON,ioos:station:TCOON:006:1,2014-06-01T12:24:00Z,27.8217,-97.2040,0.0,1.0,55.0,1.2,'11111222,11111222,11111222' 
TCOON,ioos:station:TCOON:006:1,2014-06-01T12:30:00Z,27.8217,-97.2040,0.0,1.1,107.0,1.9,'11111222,11111222,11111222' 
TCOON,ioos:station:TCOON:006:1,2014-06-01T12:36:00Z,27.8217,-97.2040,0.0,1.3,36.0,1.7,'11111222,11111222,11111222' 
TCOON,ioos:station:TCOON:006:1,2014-06-01T12:42:00Z,27.8217,-97.2040,0.0,1.4,32.0,2.1,'11111222,11111222,11111222' 
TCOON,ioos:station:TCOON:006:1,2014-06-01T12:48:00Z,27.8217,-97.2040,0.0,2.9,80.0,3.9,'11111222,11111222,11111222' 
TCOON,ioos:station:TCOON:006:1,2014-06-01T12:54:00Z,27.8217,-97.2040,0.0,2.6,75.0,3.7,'11111222,11111222,11111222' 
TCOON,ioos:station:TCOON:006:1,2014-06-01T13:00:00Z,27.8217,-97.2040,0.0,2.6,75.0,3.7,'1111122,1111122,1111122' 
TCOON,ioos:station:TCOON:006:1,2014-06-01T13:06:00Z,27.8217,-97.2040,0.0,2.5,80.0,3.0,'11111222,11111222,11111222' 
TCOON,ioos:station:TCOON:006:1,2014-06-01T13:12:00Z,27.8217,-97.2040,0.0,2.1,93.0,3.0,'11111222,11111222,11111222' 
TCOON,ioos:station:TCOON:006:1,2014-06-01T13:18:00Z,27.8217,-97.2040,0.0,1.8,84.0,2.8,'11111222,11111222,11111222' 
TCOON,ioos:station:TCOON:006:1,2014-06-01T13:24:00Z,27.8217,-97.2040,0.0,1.8,81.0,2.7,'11111222,11111222,11111222' 
TCOON,ioos:station:TCOON:006:1,2014-06-01T13:30:00Z,27.8217,-97.2040,0.0,1.8,94.0,2.6,'11111222,11111222,11111222' 
TCOON,ioos:station:TCOON:006:1,2014-06-01T13:36:00Z,27.8217,-97.2040,0.0,1.7,108.0,2.5,'11111222,11111222,11111222' 
TCOON,ioos:station:TCOON:006:1,2014-06-01T13:42:00Z,27.8217,-97.2040,0.0,1.5,82.0,2.1,'11111222,11111222,11111222' 
TCOON,ioos:station:TCOON:006:1,2014-06-01T13:48:00Z,27.8217,-97.2040,0.0,1.6,126.0,2.6,'11111222,11111222,11111222' 
TCOON,ioos:station:TCOON:006:1,2014-06-01T13:54:00Z,27.8217,-97.2040,0.0,1.4,117.0,2.1,'11111222,11111222,11111222' 
TCOON,ioos:station:TCOON:006:1,2014-06-01T14:00:00Z,27.8217,-97.2040,0.0,1.4,117.0,2.1,'1111122,1111122,1111122' 
TCOON,ioos:station:TCOON:006:1,2014-06-01T14:06:00Z,27.8217,-97.2040,0.0,2.1,127.0,2.9,'11111222,11111222,11111222' 
TCOON,ioos:station:TCOON:006:1,2014-06-01T14:12:00Z,27.8217,-97.2040,0.0,1.4,101.0,2.5,'11111222,11111222,11111222' 
TCOON,ioos:station:TCOON:006:1,2014-06-01T14:18:00Z,27.8217,-97.2040,0.0,1.6,101.0,3.1,'11111222,11111222,11111222' 
TCOON,ioos:station:TCOON:006:1,2014-06-01T14:24:00Z,27.8217,-97.2040,0.0,2.3,118.0,3.4,'11111222,11111222,11111222' 
TCOON,ioos:station:TCOON:006:1,2014-06-01T14:30:00Z,27.8217,-97.2040,0.0,2.3,124.0,3.1,'11111222,11111222,11111222' 
TCOON,ioos:station:TCOON:006:1,2014-06-01T14:36:00Z,27.8217,-97.2040,0.0,2.2,128.0,3.2,'11111222,11111222,11111222' 
TCOON,ioos:station:TCOON:006:1,2014-06-01T14:42:00Z,27.8217,-97.2040,0.0,2.5,126.0,3.3,'11111222,11111222,11111222' 
TCOON,ioos:station:TCOON:006:1,2014-06-01T14:48:00Z,27.8217,-97.2040,0.0,1.9,126.0,2.9,'11111222,11111222,11111222' 
TCOON,ioos:station:TCOON:006:1,2014-06-01T14:54:00Z,27.8217,-97.2040,0.0,1.7,125.0,2.9,'11111222,11111222,11111222' 
TCOON,ioos:station:TCOON:006:1,2014-06-01T15:00:00Z,27.8217,-97.2040,0.0,1.7,125.0,2.9,'1111122,1111122,1111122' 
TCOON,ioos:station:TCOON:006:1,2014-06-01T15:06:00Z,27.8217,-97.2040,0.0,1.2,107.0,2.4,'11111222,11111222,11111222' 
TCOON,ioos:station:TCOON:006:1,2014-06-01T15:12:00Z,27.8217,-97.2040,0.0,1.7,97.0,2.4,'11111222,11111222,11111222' 
TCOON,ioos:station:TCOON:006:1,2014-06-01T15:18:00Z,27.8217,-97.2040,0.0,1.6,96.0,2.7,'11111222,11111222,11111222' 
TCOON,ioos:station:TCOON:006:1,2014-06-01T15:24:00Z,27.8217,-97.2040,0.0,2.2,97.0,3.3,'11111222,11111222,11111222' 
TCOON,ioos:station:TCOON:006:1,2014-06-01T15:30:00Z,27.8217,-97.2040,0.0,2.2,117.0,3.1,'11111222,11111222,11111222' 
TCOON,ioos:station:TCOON:006:1,2014-06-01T15:36:00Z,27.8217,-97.2040,0.0,1.7,106.0,2.9,'11111222,11111222,11111222' 
TCOON,ioos:station:TCOON:006:1,2014-06-01T15:42:00Z,27.8217,-97.2040,0.0,2.1,123.0,2.8,'11111222,11111222,11111222' 
TCOON,ioos:station:TCOON:006:1,2014-06-01T15:48:00Z,27.8217,-97.2040,0.0,1.8,110.0,3.0,'11111222,11111222,11111222' 
TCOON,ioos:station:TCOON:006:1,2014-06-01T15:54:00Z,27.8217,-97.2040,0.0,2.0,97.0,2.8,'11111222,11111222,11111222' 
TCOON,ioos:station:TCOON:006:1,2014-06-01T16:00:00Z,27.8217,-97.2040,0.0,2.0,97.0,2.8,'1111122,1111122,1111122' 
TCOON,ioos:station:TCOON:006:1,2014-06-01T16:06:00Z,27.8217,-97.2040,0.0,2.6,92.0,3.7,'11111222,11111222,11111222' 
TCOON,ioos:station:TCOON:006:1,2014-06-01T16:12:00Z,27.8217,-97.2040,0.0,2.2,98.0,2.9,'11111222,11111222,11111222' 
TCOON,ioos:station:TCOON:006:1,2014-06-01T16:18:00Z,27.8217,-97.2040,0.0,3.0,88.0,4.1,'11111222,11111222,11111222' 
TCOON,ioos:station:TCOON:006:1,2014-06-01T16:24:00Z,27.8217,-97.2040,0.0,2.8,85.0,4.1,'11111222,11111222,11111222' 
TCOON,ioos:station:TCOON:006:1,2014-06-01T16:30:00Z,27.8217,-97.2040,0.0,3.6,88.0,5.1,'11111222,11111222,11111222' 
TCOON,ioos:station:TCOON:006:1,2014-06-01T16:36:00Z,27.8217,-97.2040,0.0,3.0,93.0,4.3,'11111222,11111222,11111222' 
TCOON,ioos:station:TCOON:006:1,2014-06-01T16:42:00Z,27.8217,-97.2040,0.0,3.1,86.0,5.2,'11111222,11111222,11111222' 
TCOON,ioos:station:TCOON:006:1,2014-06-01T16:48:00Z,27.8217,-97.2040,0.0,3.6,93.0,5.1,'11111222,11111222,11111222' 
TCOON,ioos:station:TCOON:006:1,2014-06-01T16:54:00Z,27.8217,-97.2040,0.0,2.9,90.0,4.8,'11111222,11111222,11111222' 
TCOON,ioos:station:TCOON:006:1,2014-06-01T17:00:00Z,27.8217,-97.2040,0.0,2.9,90.0,4.8,'1111122,1111122,1111122' 
TCOON,ioos:station:TCOON:006:1,2014-06-01T17:06:00Z,27.8217,-97.2040,0.0,2.8,100.0,5.5,'11111222,11111222,11111222' 
TCOON,ioos:station:TCOON:006:1,2014-06-01T17:12:00Z,27.8217,-97.2040,0.0,4.0,105.0,5.2,'11111222,11111222,11111222' 
TCOON,ioos:station:TCOON:006:1,2014-06-01T17:18:00Z,27.8217,-97.2040,0.0,3.4,91.0,4.8,'11111222,11111222,11111222' 
TCOON,ioos:station:TCOON:006:1,2014-06-01T17:24:00Z,27.8217,-97.2040,0.0,3.3,90.0,5.8,'11111222,11111222,11111222' 
TCOON,ioos:station:TCOON:006:1,2014-06-01T17:30:00Z,27.8217,-97.2040,0.0,3.7,89.0,5.7,'11111222,11111222,11111222' 
TCOON,ioos:station:TCOON:006:1,2014-06-01T17:36:00Z,27.8217,-97.2040,0.0,3.8,91.0,6.0,'11111222,11111222,11111222' 
TCOON,ioos:station:TCOON:006:1,2014-06-01T17:42:00Z,27.8217,-97.2040,0.0,4.8,85.0,6.7,'11111222,11111222,11111222' 
TCOON,ioos:station:TCOON:006:1,2014-06-01T17:48:00Z,27.8217,-97.2040,0.0,3.7,99.0,6.1,'11111222,11111222,11111222' 
TCOON,ioos:station:TCOON:006:1,2014-06-01T17:54:00Z,27.8217,-97.2040,0.0,3.4,95.0,5.8,'11111222,11111222,11111222' 
TCOON,ioos:station:TCOON:006:1,2014-06-01T18:00:00Z,27.8217,-97.2040,0.0,3.4,95.0,5.8,'1111122,1111122,1111122' 
TCOON,ioos:station:TCOON:006:1,2014-06-01T18:06:00Z,27.8217,-97.2040,0.0,3.8,93.0,5.2,'11111222,11111222,11111222' 
TCOON,ioos:station:TCOON:006:1,2014-06-01T18:12:00Z,27.8217,-97.2040,0.0,3.1,93.0,5.2,'11111222,11111222,11111222' 
TCOON,ioos:station:TCOON:006:1,2014-06-01T18:18:00Z,27.8217,-97.2040,0.0,3.8,88.0,5.5,'11111222,11111222,11111222' 
TCOON,ioos:station:TCOON:006:1,2014-06-01T18:24:00Z,27.8217,-97.2040,0.0,3.6,86.0,5.6,'11111222,11111222,11111222' 
TCOON,ioos:station:TCOON:006:1,2014-06-01T18:30:00Z,27.8217,-97.2040,0.0,3.0,95.0,5.4,'11111222,11111222,11111222' 
TCOON,ioos:station:TCOON:006:1,2014-06-01T18:36:00Z,27.8217,-97.2040,0.0,3.5,99.0,5.4,'11111222,11111222,11111222' 
TCOON,ioos:station:TCOON:006:1,2014-06-01T18:42:00Z,27.8217,-97.2040,0.0,3.6,88.0,5.9,'11111222,11111222,11111222' 
TCOON,ioos:station:TCOON:006:1,2014-06-01T18:48:00Z,27.8217,-97.2040,0.0,2.8,98.0,5.4,'11111222,11111222,11111222' 
TCOON,ioos:station:TCOON:006:1,2014-06-01T18:54:00Z,27.8217,-97.2040,0.0,3.4,114.0,5.0,'11111222,11111222,11111222' 
TCOON,ioos:station:TCOON:006:1,2014-06-01T19:00:00Z,27.8217,-97.2040,0.0,3.4,114.0,5.0,'1111122,1111122,1111122' 
TCOON,ioos:station:TCOON:006:1,2014-06-01T19:06:00Z,27.8217,-97.2040,0.0,3.0,105.0,4.9,'11111222,11111222,11111222' 
TCOON,ioos:station:TCOON:006:1,2014-06-01T19:12:00Z,27.8217,-97.2040,0.0,4.0,114.0,5.2,'11111222,11111222,11111222' 
TCOON,ioos:station:TCOON:006:1,2014-06-01T19:18:00Z,27.8217,-97.2040,0.0,3.9,110.0,5.0,'11111222,11111222,11111222' 
TCOON,ioos:station:TCOON:006:1,2014-06-01T19:24:00Z,27.8217,-97.2040,0.0,5.0,119.0,5.9,'11111222,11111222,11111222' 
TCOON,ioos:station:TCOON:006:1,2014-06-01T19:30:00Z,27.8217,-97.2040,0.0,3.7,103.0,5.9,'11111222,11111222,11111222' 
TCOON,ioos:station:TCOON:006:1,2014-06-01T19:36:00Z,27.8217,-97.2040,0.0,3.7,94.0,5.7,'11111222,11111222,11111222' 
TCOON,ioos:station:TCOON:006:1,2014-06-01T19:42:00Z,27.8217,-97.2040,0.0,4.5,103.0,6.8,'11111222,11111222,11111222' 
TCOON,ioos:station:TCOON:006:1,2014-06-01T19:48:00Z,27.8217,-97.2040,0.0,4.0,84.0,6.2,'11111222,11111222,11111222' 
TCOON,ioos:station:TCOON:006:1,2014-06-01T19:54:00Z,27.8217,-97.2040,0.0,4.0,104.0,5.6,'11111222,11111222,11111222' 
TCOON,ioos:station:TCOON:006:1,2014-06-01T20:00:00Z,27.8217,-97.2040,0.0,4.0,104.0,5.6,'1111122,1111122,1111122' 
TCOON,ioos:station:TCOON:006:1,2014-06-01T20:06:00Z,27.8217,-97.2040,0.0,3.3,106.0,5.3,'11111222,11111222,11111222' 
TCOON,ioos:station:TCOON:006:1,2014-06-01T20:12:00Z,27.8217,-97.2040,0.0,3.6,112.0,5.0,'11111222,11111222,11111222' 
TCOON,ioos:station:TCOON:006:1,2014-06-01T20:18:00Z,27.8217,-97.2040,0.0,4.0,112.0,5.3,'11111222,11111222,11111222' 
TCOON,ioos:station:TCOON:006:1,2014-06-01T20:24:00Z,27.8217,-97.2040,0.0,3.8,113.0,5.3,'11111222,11111222,11111222' 